San Jose, Costa Rica

8:34 AM CST on February 23, 2017 (GMT -0600)
Juan Santamaria International

Weather History for MROC - December, 2012

Change the Weather History Date:

Tuesday, December 11, 2012

  Actual Average Record
Temperature  
Mean Temperature 76 °F -  
Max Temperature 86 °F 79 °F 86 °F (1997)
Min Temperature 67 °F 64 °F 62 °F (1996)
Cooling Degree Days 12    
Growing Degree Days 26 (Base 50)    
Moisture  
Dew Point 63 °F    
Average Humidity 65    
Maximum Humidity 94    
Minimum Humidity 32    
Precipitation  
Precipitation 0.00 in 0.03 in - ()
Sea Level Pressure  
Sea Level Pressure 29.92 in    
Wind  
Wind Speed 5 mph ()    
Max Wind Speed 12 mph    
Max Gust Speed -    
Visibility 7.9 miles    
Events      
Averages and records for this station are not official NWS values.
T = Trace of Precipitation, MM = Missing Value Source: Averaged Metar Reports

Daily Weather History Graph

Daily Weather History Graph

Search for Another Location

Airport or City:

Trip Planner

Search our weather history database for the weather conditions in past years. The results will help you decide how hot, cold, wet, or windy it might be!

Date:

Astronomy

Dec. 11, 2012 Rise Set
Actual Time 5:43 AM CST 5:17 PM CST
Civil Twilight 5:21 AM CST 5:39 PM CST
Nautical Twilight 4:54 AM CST 6:06 PM CST
Astronomical Twilight 4:28 AM CST 6:32 PM CST
Moon 3:47 AM CST (12/11) 3:47 PM CST (12/11)
Length of Visible Light 12h 18m
Length of Day
11h 33m
Waning Crescent, 4% of the Moon is Illuminated
Dec 11
Waning Crescent
Dec 13
New
Dec 19
First Quarter
Dec 28
Full
Jan 4
Last Quarter

Hourly Weather History & Observations

Time (CST) Temp. Heat Index Dew Point Humidity Pressure Visibility Wind Dir Wind Speed Gust Speed Precip Events Conditions
12:00 AM 69 °F - 62 °F 72% 29.79 in 12 mi ENE 5.8 mph - -  
12:00 AM 69.8 °F - 62.6 °F 78% 29.97 in - ENE 5.8 mph - N/A   Clear
1:00 AM 68.0 °F - 62.6 °F 83% 29.96 in - East 3.5 mph - N/A   Clear
2:00 AM 68.0 °F - 62.6 °F 83% 29.93 in - ENE 3.5 mph - N/A   Clear
3:00 AM 70 °F - 62 °F 69% 29.80 in 12 mi ENE 3.5 mph - -  
3:00 AM 69.8 °F - 62.6 °F 78% 29.92 in - ENE 3.5 mph - N/A   Clear
4:00 AM 68.0 °F - 60.8 °F 78% 29.99 in - NE 8.1 mph - N/A   Clear
5:00 AM 68.0 °F - 60.8 °F 78% 29.95 in 6.2 mi NNE 5.8 mph - N/A   Mostly Cloudy
6:00 AM 70 °F - 62 °F 70% 29.80 in 12 mi ENE 4.6 mph - -   Scattered Clouds
6:00 AM 69.8 °F - 62.6 °F 78% 29.95 in 6.2 mi ENE 4.6 mph - N/A   Scattered Clouds
7:00 AM 73.4 °F - 62.6 °F 69% 29.97 in - ENE 3.5 mph - N/A   Clear
8:00 AM 77.0 °F - 62.6 °F 61% 29.99 in - ESE 11.5 mph - N/A   Clear
9:00 AM 79 °F - 63 °F 48% 29.81 in 12 mi East 11.5 mph - -   Scattered Clouds
9:00 AM 78.8 °F - 62.6 °F 57% 30.00 in 6.2 mi East 11.5 mph - N/A   Mostly Cloudy
10:00 AM 82.4 °F 82.9 °F 60.8 °F 48% 29.99 in 6.2 mi East 11.5 mph - N/A   Scattered Clouds
11:00 AM 84.2 °F 84.4 °F 60.8 °F 45% 29.97 in 6.2 mi ENE 11.5 mph - N/A   Partly Cloudy
12:00 PM 86 °F - 60 °F 32% 29.76 in 12 mi ENE 9.2 mph - -   Partly Cloudy
12:00 PM 86.0 °F 86.1 °F 60.8 °F 43% 29.94 in 6.2 mi ENE 9.2 mph - N/A   Partly Cloudy
1:00 PM 86.0 °F 86.1 °F 60.8 °F 43% 29.92 in 6.2 mi ENE 11.5 mph - N/A   Scattered Clouds
2:00 PM 84.2 °F 83.8 °F 59.0 °F 42% 29.90 in 6.2 mi ENE 10.4 mph - N/A   Scattered Clouds
3:00 PM 81 °F - 60 °F 39% 29.72 in 12 mi East 8.1 mph - -   Scattered Clouds
3:00 PM 84.2 °F 83.8 °F 59.0 °F 42% 29.90 in 6.2 mi East 6.9 mph - N/A   Mostly Cloudy
4:00 PM 82.4 °F 82.9 °F 60.8 °F 48% 29.90 in 6.2 mi East 8.1 mph - N/A   Mostly Cloudy
5:00 PM 78.8 °F - 68.0 °F 69% 29.92 in 6.2 mi South 4.6 mph - N/A   Mostly Cloudy
6:00 PM 77.0 °F - 68.0 °F 74% 29.93 in 6.2 mi ESE 3.5 mph - N/A   Scattered Clouds
7:00 PM 73.4 °F - 66.2 °F 78% 29.97 in 6.2 mi NE 4.6 mph - N/A   Scattered Clouds
8:00 PM 73.4 °F - 68.0 °F 83% 30.00 in 6.2 mi NE 2.3 mph - N/A   Scattered Clouds
9:00 PM 72 °F - 69 °F 86% 29.85 in 12 mi Calm Calm - -   Partly Cloudy
9:00 PM 71.6 °F - 68.0 °F 88% 30.02 in 6.2 mi Calm Calm - N/A   Scattered Clouds
10:00 PM 69.8 °F - 68.0 °F 94% 30.02 in 6.2 mi Calm Calm - N/A   Scattered Clouds
11:00 PM 71.6 °F - 62.6 °F 73% 30.02 in 6.2 mi East 4.6 mph - N/A   Partly Cloudy